Notices

What's New in latest Release from April 7th, 2021:

- Updated Glossary, including Speed of Maximum Gust, and Total Hourly Precipitation

- Updated national and regional climate services offices contacts and prices information

- Addition of station inventory lists for 1981-2010, 1971-2000, and 1961-1990 Normals.

If you haven't already, please take our survey and provide feedback about our website: https://eccc.sondage-survey.ca/f/LanguageSelection.aspx?s=442ca660-fcf1-47c0-95a9-59707d6fd709

Hourly Data Report for March 11, 2021

NANAIMO A
BRITISH COLUMBIA
Current Station Operator: NAVCAN

49°03'16.000" N
123°52'12.000" W
28.00 m
1025365
YCD

Download Data

Hourly Data (March 2021)
Hourly Data Report for March 11, 2021
TIME
LST
Temp Definition
°C
Dew Point Definition
°C
Rel Hum Definition
%
Precip. Amount Definition
mm

Wind Dir Definition
10's deg

Wind Spd Definition
km/h
Visibility Definition
km
Stn Press Definition
kPa
Hmdx Definition


Wind Chill Definition


Weather Definition


00:00 2.4 -1.1 77 LegendMM 27 8 LegendMM 101.85     LegendNANA
01:00 -1.0 -2.6 89 LegendMM 30 2 LegendMM 101.93   -2 LegendNANA
02:00 1.1 -1.3 84 LegendMM 26 7 LegendMM 101.97     LegendNANA
03:00 -1.0 -2.3 91 LegendMM 19 3 LegendMM 101.95   -2 LegendNANA
04:00 -1.6 -2.3 95 LegendMM 24 2 LegendMM 102.03   -2 LegendNANA
05:00 -0.1 -3.1 80 LegendMM 26 7 LegendMM 102.09   -3 LegendNANA
06:00 -2.0 -3.0 93 LegendMM 29 2 LegendMM 102.13   -3 LegendNANA
07:00 -2.3 -3.3 93 LegendMM 21 1 LegendMM 102.19   -3 LegendNANA
08:00 1.1 -1.4 84 LegendMM 16 1 LegendMM 102.24     LegendNANA
09:00 5.2 -2.2 59 LegendMM 29 7 LegendMM 102.26     LegendNANA
10:00 7.5 -2.2 50 LegendMM 3 4 LegendMM 102.28     LegendNANA
11:00 7.8 -2.3 49 LegendMM 14 2 LegendMM 102.28     LegendNANA
12:00 8.9 0.2 54 LegendMM 16 14 LegendMM 102.27     LegendNANA
13:00 9.6 0.2 52 LegendMM 6 13 LegendMM 102.26     LegendNANA
14:00 10.2 -0.7 47 LegendMM 8 8 LegendMM 102.21     LegendNANA
15:00 10.3 -0.2 48 LegendMM 5 11 LegendMM 102.19     LegendNANA
16:00 9.9 -0.1 50 LegendMM 8 9 LegendMM 102.20     LegendNANA
17:00 9.0 0.0 53 LegendMM 9 9 LegendMM 102.18     LegendNANA
18:00 7.3 0.4 61 LegendMM 11 7 LegendMM 102.17     LegendNANA
19:00 5.7 1.1 73 LegendMM 26 5 LegendMM 102.22     LegendNANA
20:00 3.6 0.9 82 LegendMM 28 2 LegendMM 102.24     LegendNANA
21:00 2.9 0.4 84 LegendMM 20 4 LegendMM 102.22     LegendNANA
22:00 1.8 0.0 87 LegendMM 24 5 LegendMM 102.27     LegendNANA
23:00 0.0 -1.3 91 LegendMM 13 1 LegendMM 102.26   0 LegendNANA

Notes on Data Quality.

Legend

  • E = Estimated
  • M = Missing
  • NA = Not Available*
  • [empty] = Indicates an unobserved value
Date modified: